Regional Weather Roundup
Issued by NWS

Home | Current Version | Previous Version | Graphics & Text | Print | Product List | Glossary On
Versions: 1 2 3 4 5 6 7 8 9 10 11 12 13 14 15 16 17 18 19 20 21 22 23 24 25 26 27 28 29 30 31 32 33 34 35 36 37 38 39 40 41 42 43 44 45 46 47 48 49 50
000
ASUS44 KMEG 282000
RWRTN
TENNESSEE HOURLY STATE WEATHER ROUNDUP
NATIONAL WEATHER SERVICE MEMPHIS TN
200 PM CST FRI NOV 28 2014

TNZ002-004-019-021-049-052-054-088>092-282100-
WEST TENNESSEE

CITY           SKY/WX    TMP DP  RH WIND       PRES   REMARKS
MEMPHIS INTL   SUNNY     55  24  30 S10G21    30.21F
NWS MEMPHIS      N/A     54 N/A N/A MISG        N/A
JACKSON        SUNNY     52  24  33 S14G21    30.21F
DYERSBURG      SUNNY     50  23  34 S14G20    30.20F
UNION CITY     SUNNY     46  27  46 S14       30.17F
PARIS          SUNNY     46  27  46 S10       30.20F
LEXINGTON      SUNNY     48  23  37 S12       30.23F
SAVANNAH       SUNNY     48  25  40 S7        30.26F
$$

TNZ008-025-027-028-033-062-065-066-282100-
NORTH MIDDLE TENNESSEE

CITY           SKY/WX    TMP DP  RH WIND       PRES   REMARKS
NASHVILLE      MOSUNNY   47  19  33 S12       30.26F
CLARKSVILLE    SUNNY     47  26  44 S9        30.22F
COOKEVILLE     SUNNY     45  16  31 SW5       30.27F
CROSSVILLE     SUNNY     43  15  32 CALM      30.24F
$$

TNZ061-075-076-078-094-096-097-282100-
SOUTH MIDDLE TENNESSEE

CITY           SKY/WX    TMP DP  RH WIND       PRES   REMARKS
TULLAHOMA      SUNNY     45   9  23 CALM      30.27F
WINCHESTER     SUNNY     48  18  29 CALM      30.27F
SHELBYVILLE    SUNNY     46  21  36 S7        30.28F
$$

TNZ017-018-042-046-047-282100-
NORTHEAST TENNESSEE

CITY           SKY/WX    TMP DP  RH WIND       PRES   REMARKS
TRI CITIES     PTSUNNY   35  20  54 SW7       30.29F WCI  29
ELIZABETHTON   PTCLDY    36  19  51 CALM      30.28F
$$

TNZ012-013-036-069-073-074-282100-
CENTRAL EAST TENNESSEE

CITY           SKY/WX    TMP DP  RH WIND       PRES   REMARKS
KNOXVILLE      MOSUNNY   41  16  36 CALM      30.30F
OAK RIDGE      SUNNY     42  16  34 VRB3      30.31F
GATLINBURG     CLEAR     39  18  41 NE3       30.29F
$$

TNZ083-085-099-282100-
SOUTHEAST TENNESSEE

CITY           SKY/WX    TMP DP  RH WIND       PRES   REMARKS
CHATTANOOGA    SUNNY     45  14  28 CALM      30.31F
$$

SKY/WX REPORTED AS FAIR MEANS FEW OR NO CLOUDS BELOW
12 THOUSAND FEET.



USA.gov is the U.S. government's official web portal to all federal, state and local government web resources and services.